Fairmont, MN

3:34 AM CDT on October 19, 2017 (GMT -0500)
Fairmont Municipal

Weather History for KFRM - March, 2014

Change the Weather History Date:

Thursday, March 6, 2014

  Actual Average Record
Temperature  
Mean Temperature 16 °F -  
Max Temperature 28 °F 37 °F 70 °F (2017)
Min Temperature 3 °F 16 °F -9 °F (1962)
Degree Days  
Heating Degree Days 50    
Moisture  
Dew Point 17 °F    
Average Humidity 87    
Maximum Humidity 93    
Minimum Humidity 80    
Precipitation  
Precipitation 0.00 in - - ()
Sea Level Pressure  
Sea Level Pressure 30.03 in    
Wind  
Wind Speed 17 mph (SSE)    
Max Wind Speed 30 mph    
Max Gust Speed 36 mph    
Visibility 6 miles    
Events      
Averages and records for this station are not official NWS values.
T = Trace of Precipitation, MM = Missing Value Source: NWS Daily Summary

Daily Weather History Graph

Daily Weather History Graph

Search for Another Location

Airport or City:

Trip Planner

Search our weather history database for the weather conditions in past years. The results will help you decide how hot, cold, wet, or windy it might be!

Date:

Astronomy

Mar. 06, 2014 Rise Set
Actual Time 6:45 AM CST 6:12 PM CST
Civil Twilight 6:17 AM CST 6:41 PM CST
Nautical Twilight 5:43 AM CST 7:14 PM CST
Astronomical Twilight 5:10 AM CST 7:48 PM CST
Moon 9:43 AM CST (3/6) No Moon Set
Length of Visible Light 12h 24m
Length of Day
11h 27m
Waxing Crescent, 32% of the Moon is Illuminated
Mar 6
Waxing Crescent
Mar 8
First Quarter
Mar 16
Full
Mar 23
Last Quarter
Mar 30
New

Hourly Weather History & Observations

Time (CST) Temp. Windchill Dew Point Humidity Pressure Visibility Wind Dir Wind Speed Gust Speed Precip Events Conditions
12:15 AM 14.0 °F 0.5 °F 10.4 °F 86% 30.31 in 10.0 mi South 11.5 mph - N/A   Overcast
12:35 AM 14.0 °F 1.2 °F 10.4 °F 86% 30.30 in 10.0 mi SSE 10.4 mph - N/A   Overcast
12:55 AM 10.4 °F -4.8 °F 6.8 °F 85% 30.29 in 10.0 mi SSE 12.7 mph - N/A   Scattered Clouds
1:15 AM 8.6 °F -7.7 °F 5.0 °F 85% 30.28 in 10.0 mi South 13.8 mph - N/A   Clear
1:35 AM 6.8 °F -6.9 °F 3.2 °F 85% 30.28 in 10.0 mi South 9.2 mph - N/A   Clear
1:55 AM 5.0 °F -9.1 °F 3.2 °F 92% 30.28 in 10.0 mi South 9.2 mph - N/A   Clear
2:15 AM 5.0 °F -10.8 °F 1.4 °F 85% 30.26 in 10.0 mi South 11.5 mph - N/A   Clear
2:35 AM 3.2 °F -11.3 °F 1.4 °F 92% 30.26 in 10.0 mi South 9.2 mph - N/A   Partly Cloudy
2:55 AM 8.6 °F -5.5 °F 6.8 °F 92% 30.25 in 10.0 mi South 10.4 mph - N/A   Mostly Cloudy
3:15 AM 10.4 °F -4.1 °F 6.8 °F 85% 30.24 in 10.0 mi SSE 11.5 mph - N/A   Overcast
3:35 AM 10.4 °F -5.4 °F 8.6 °F 92% 30.23 in 10.0 mi SSE 13.8 mph - N/A   Overcast
3:55 AM 12.2 °F -3.7 °F 10.4 °F 92% 30.23 in 10.0 mi South 15.0 mph - N/A   Overcast
4:15 AM 14.0 °F -0.8 °F 10.4 °F 86% 30.23 in 10.0 mi South 13.8 mph - N/A   Overcast
4:35 AM 14.0 °F -0.8 °F 10.4 °F 86% 30.22 in 10.0 mi South 13.8 mph - N/A   Overcast
4:55 AM 15.8 °F 0.3 °F 12.2 °F 86% 30.21 in 10.0 mi SSE 16.1 mph - N/A   Overcast
5:15 AM 15.8 °F -0.6 °F 12.2 °F 86% 30.20 in 10.0 mi SSE 18.4 mph - N/A   Overcast
5:35 AM 15.8 °F 2.1 °F 12.2 °F 86% 30.20 in 10.0 mi South 12.7 mph - N/A   Overcast
5:55 AM 15.8 °F 1.4 °F 12.2 °F 86% 30.20 in 10.0 mi SSE 13.8 mph - N/A   Overcast
6:15 AM 15.8 °F 0.9 °F 12.2 °F 86% 30.18 in 10.0 mi SSE 15.0 mph - N/A   Overcast
6:35 AM 17.6 °F 1.7 °F 14.0 °F 86% 30.17 in 10.0 mi SSE 18.4 mph - N/A   Overcast
6:55 AM 17.6 °F 1.3 °F 14.0 °F 86% 30.16 in 10.0 mi SSE 19.6 mph - N/A   Overcast
7:15 AM 17.6 °F 1.7 °F 14.0 °F 86% 30.16 in 9.0 mi South 18.4 mph - N/A   Overcast
7:35 AM 17.6 °F 1.3 °F 15.8 °F 93% 30.15 in 8.0 mi South 19.6 mph - N/A   Overcast
7:55 AM 17.6 °F 0.9 °F 15.8 °F 93% 30.14 in 7.0 mi South 20.7 mph - N/A   Overcast
8:15 AM 17.6 °F 1.3 °F 15.8 °F 93% 30.13 in 5.0 mi South 19.6 mph 26.5 mph N/A   Overcast
8:35 AM 19.4 °F 2.8 °F 15.8 °F 86% 30.12 in 5.0 mi South 21.9 mph 26.5 mph N/A   Overcast
8:55 AM 19.4 °F 4.1 °F 15.8 °F 86% 30.14 in 4.0 mi South 18.4 mph - N/A   Overcast
9:15 AM 19.4 °F 2.5 °F 15.8 °F 86% 30.12 in 3.0 mi South 23.0 mph - N/A   Overcast
9:35 AM 19.4 °F 2.5 °F 17.6 °F 93% 30.11 in 3.0 mi South 23.0 mph - N/A   Overcast
9:55 AM 19.4 °F 2.1 °F 17.6 °F 93% 30.10 in 3.0 mi South 24.2 mph - N/A   Overcast
10:15 AM 19.4 °F 2.5 °F 17.6 °F 93% 30.09 in 3.0 mi South 23.0 mph - N/A   Overcast
10:35 AM 21.2 °F 4.9 °F 17.6 °F 86% 30.08 in 3.0 mi SSE 23.0 mph - N/A   Overcast
10:55 AM 21.2 °F 4.5 °F 17.6 °F 86% 30.07 in 3.0 mi South 24.2 mph - N/A   Overcast
11:15 AM 21.2 °F 4.5 °F 19.4 °F 93% 30.06 in 3.0 mi South 24.2 mph 29.9 mph N/A   Overcast
11:35 AM 21.2 °F 4.9 °F 19.4 °F 93% 30.06 in 3.0 mi SSE 23.0 mph - N/A   Overcast
11:55 AM 23.0 °F 6.6 °F 19.4 °F 86% 30.03 in 2.5 mi SSE 25.3 mph 29.9 mph N/A   Overcast
12:15 PM 23.0 °F 6.9 °F 19.4 °F 86% 30.03 in 2.5 mi South 24.2 mph - N/A   Overcast
12:35 PM 24.8 °F 9.0 °F 19.4 °F 80% 30.02 in 2.5 mi South 25.3 mph 31.1 mph N/A   Overcast
12:55 PM 24.8 °F 9.0 °F 21.2 °F 86% 30.01 in 2.0 mi South 25.3 mph - N/A   Overcast
1:15 PM 24.8 °F 8.7 °F 21.2 °F 86% 30.00 in 3.0 mi South 26.5 mph - N/A   Overcast
1:35 PM 24.8 °F 9.3 °F 21.2 °F 86% 29.99 in 2.5 mi South 24.2 mph 32.2 mph N/A   Overcast
1:55 PM 24.8 °F 8.4 °F 21.2 °F 86% 29.97 in 2.0 mi South 27.6 mph 32.2 mph N/A   Overcast
2:15 PM 24.8 °F 9.0 °F 21.2 °F 86% 29.95 in 1.8 mi South 25.3 mph - N/A   Overcast
2:35 PM 26.6 °F 10.3 °F 21.2 °F 80% 29.93 in 1.5 mi SSE 29.9 mph 34.5 mph N/A   Overcast
2:55 PM 26.6 °F 10.3 °F 23.0 °F 86% 29.92 in 1.5 mi SSE 29.9 mph 35.7 mph N/A   Overcast
3:15 PM 26.6 °F 10.6 °F 23.0 °F 86% 29.91 in 1.8 mi SSE 28.8 mph 34.5 mph N/A   Overcast
3:35 PM 26.6 °F 11.7 °F 23.0 °F 86% 29.90 in 2.0 mi SSE 24.2 mph - N/A   Overcast
3:55 PM 26.6 °F 12.4 °F 23.0 °F 86% 29.90 in 2.5 mi SSE 21.9 mph 28.8 mph N/A   Overcast
4:15 PM 26.6 °F 12.4 °F 24.8 °F 93% 29.88 in 2.5 mi SSE 21.9 mph 27.6 mph N/A   Overcast
4:35 PM 26.6 °F 11.7 °F 23.0 °F 86% 29.88 in 2.5 mi SSE 24.2 mph - N/A   Overcast
4:55 PM 26.6 °F 11.7 °F 23.0 °F 86% 29.87 in 3.0 mi South 24.2 mph - N/A   Overcast
5:15 PM 26.6 °F 12.0 °F 23.0 °F 86% 29.86 in 3.0 mi South 23.0 mph - N/A   Mostly Cloudy
5:35 PM 26.6 °F 13.1 °F 23.0 °F 86% 29.87 in 3.0 mi South 19.6 mph - N/A   Partly Cloudy
5:55 PM 24.8 °F 12.4 °F 21.2 °F 86% 29.87 in 3.0 mi South 15.0 mph - N/A   Clear
6:15 PM 24.8 °F 13.4 °F 21.2 °F 86% 29.87 in 4.0 mi SSE 12.7 mph - N/A   Clear
6:35 PM 24.8 °F 12.9 °F 21.2 °F 86% 29.87 in 3.0 mi SSE 13.8 mph - N/A   Clear
6:55 PM 23.0 °F 10.6 °F 19.4 °F 86% 29.87 in 5.0 mi SSE 13.8 mph - N/A   Clear
7:15 PM 23.0 °F 10.6 °F 19.4 °F 86% 29.86 in 5.0 mi SSE 13.8 mph - N/A   Clear
7:35 PM 24.8 °F 13.4 °F 19.4 °F 80% 29.86 in 5.0 mi SSE 12.7 mph - N/A   Clear
7:55 PM 24.8 °F 12.4 °F 21.2 °F 86% 29.86 in 5.0 mi South 15.0 mph - N/A   Clear
8:15 PM 24.8 °F 11.5 °F 21.2 °F 86% 29.85 in 5.0 mi SSE 17.3 mph - N/A   Clear
8:35 PM 24.8 °F 11.9 °F 21.2 °F 86% 29.84 in 5.0 mi South 16.1 mph - N/A   Clear
8:55 PM 24.8 °F 11.5 °F 19.4 °F 80% 29.83 in 5.0 mi South 17.3 mph - N/A   Clear
9:15 PM 24.8 °F 11.9 °F 21.2 °F 86% 29.83 in 5.0 mi South 16.1 mph - N/A   Clear
9:35 PM 24.8 °F 12.4 °F 21.2 °F 86% 29.83 in 5.0 mi South 15.0 mph - N/A   Clear
9:55 PM 26.6 °F 13.1 °F 24.8 °F 93% 29.81 in 5.0 mi South 19.6 mph - N/A   Clear
10:15 PM 28.4 °F 15.1 °F 24.8 °F 86% 29.80 in 5.0 mi South 20.7 mph - N/A   Clear
10:35 PM 28.4 °F 15.4 °F 24.8 °F 86% 29.81 in 5.0 mi South 19.6 mph - N/A   Clear
10:55 PM 28.4 °F 15.4 °F 24.8 °F 86% 29.80 in 5.0 mi South 19.6 mph - N/A   Clear
11:15 PM 28.4 °F 16.2 °F 24.8 °F 86% 29.80 in 5.0 mi South 17.3 mph - N/A   Clear
11:35 PM 28.4 °F 16.2 °F 24.8 °F 86% 29.79 in 5.0 mi South 17.3 mph - N/A   Clear
11:55 PM 28.4 °F 15.4 °F 24.8 °F 86% 29.78 in 5.0 mi South 19.6 mph - N/A   Clear